Regional Weather Roundup
Issued by NWS

Home | Current Version | Previous Version | Text Only | Print | Product List | Glossary Off
Versions: 1 2 3 4 5 6 7 8 9 10 11 12 13 14 15 16 17 18 19 20 21 22 23 24 25 26 27 28 29 30 31 32 33 34 35 36 37 38 39 40 41 42 43 44 45 46 47 48 49 50

000
ASUS43 KDMX 201707
RWRIA

WEATHER ROUNDUP FOR IOWA
NATIONAL WEATHER SERVICE DES MOINES IA
1200 PM CDT WED AUG 20 2014

NOTE: "FAIR" INDICATES FEW OR NO CLOUDS BELOW 12,000 FEET WITH NO
SIGNIFICANT WEATHER AND/OR OBSTRUCTIONS TO VISIBILITY.

* - THESE STATIONS ARE NOT NWS STATIONS...THUS NOT UNDER NWS
QUALITY CONTROL.  THEY ALSO DO NOT REPORT WEATHER SUCH
AS PRECIPITATION OR FOG.

IAZ001>003-012>014-020>022-031>034-043>046-201800-
   NORTHWEST IOWA

CITY           SKY/WX    TMP DP  RH WIND       PRES   REMARKS
CARROLL *      PTSUNNY   70  68  94 S9G15     29.85R
CHEROKEE *     LGT RAIN  70  70 100 S7        29.87R
DENISON *      SUNNY     72  68  88 S13G20    29.83S
LE MARS *      RAIN      70  68  94 S17G24    29.83R
ORANGE CITY *  MOSUNNY   73  66  78 S10       29.85R
SHELDON *      PTSUNNY   70  68  94 SE12      29.84R
SIOUX CITY     RAIN      71  68  90 NE7       29.85R FOG
SPENCER        CLOUDY    73  67  81 S12       29.84R
STORM LAKE *   MOSUNNY   70  70 100 SE8       29.87F
$$

IAZ055>058-069>071-079>083-090>094-201800-
   SOUTHWEST IOWA

CITY           SKY/WX    TMP DP  RH WIND       PRES   REMARKS
ATLANTIC *     SUNNY     73  64  73 S12       29.86S
AUDUBON *      SUNNY     75  70  83 S12       29.87S
CLARINDA *     SUNNY     81  70  69 E10       29.90F HX  84
COUNCIL BLFS * SUNNY     75  72  88 SE15      29.85F
CRESTON *      SUNNY     77  68  73 SE12      29.91F
HARLAN  *      SUNNY     72  66  83 S12       29.90S
LAMONI         PTSUNNY   78  68  71 SE6       29.91F HX  80
RED OAK *      SUNNY     81  70  69 SE12G21   29.88F HX  84
SHENANDOAH *   SUNNY     81  73  78 E15       29.88S HX  85
$$

IAZ047>049-059>061-072>074-084-201800-
   CENTRAL IOWA

CITY           SKY/WX    TMP DP  RH WIND       PRES   REMARKS
AMES           CLOUDY    71  71 100 NW8       29.87R
ANKENY *       SUNNY     70  68  94 S10       29.84F
CHARITON *     MOSUNNY   73  68  83 SE7       29.90F
DES MOINES     CLOUDY    72  67  84 S9        29.85F
GRINNELL*      LGT RAIN  68  66  94 NE6       29.85F
KNOXVILLE *    CLOUDY    70  68  94 S7        29.87F
MARSHALLTOWN   LGT RAIN  70  67  90 SE13      29.82F
PELLA *        CLOUDY    70  70 100 S3        29.89F
PERRY *        LGT RAIN  70  68  94 CALM      29.88R
$$

IAZ004>006-015-016-023>025-035-036-201800-
   NORTH CENTRAL IOWA

CITY           SKY/WX    TMP DP  RH WIND       PRES   REMARKS
ALGONA *       SUNNY     73  68  83 S13       29.86R
CLARION *      PTSUNNY   70  68  94 SE6G12    29.86S
ESTHERVILLE    CLOUDY    73  67  81 SE10      29.84S
FORT DODGE *   CLOUDY    70  66  88 CALM      29.87S
MASON CITY     CLOUDY    77  67  71 S12       29.88S
FOREST CITY *  SUNNY     75  68  78 SE12      29.86R
IOWA FALLS *     N/A     70  66  88 E3        29.87F
$$

IAZ007>011-017>019-026>030-037>042-050>054-066-201800-
   NORTHEAST IOWA

CITY           SKY/WX    TMP DP  RH WIND       PRES   REMARKS
CEDAR RAPIDS   CLOUDY    72  69  90 CALM      29.91F
CHARLES CITY * SUNNY     77  68  73 S7G13     29.89F
CLINTON *      CLOUDY    75  66  73 W10       29.97R
DECORAH *      SUNNY     77  68  73 VRB6      29.89F
DUBUQUE        CLOUDY    78  67  68 SW14      29.93R HX  80
MONTICELLO *   MOSUNNY   77  68  73 SW9       29.92F
OELWEIN *      SUNNY     75  68  78 S8G15     29.91F
WATERLOO       CLOUDY    74  67  78 S10       29.87F
$$

IAZ064-065-067-068-078-201800-
   EAST CENTRAL IOWA

CITY           SKY/WX    TMP DP  RH WIND       PRES   REMARKS
DAVENPORT      CLOUDY    75  67  76 SW8       29.95R
IOWA CITY      CLOUDY    72  69  90 CALM      29.92F
MT. PLEASANT * LGT RAIN  70  68  94 CALM      29.91F
MUSCATINE *    CLOUDY    72  68  88 NW5       29.93F
QUAD CITIES    CLOUDY    77  68  73 W5        29.94R
$$

IAZ062-063-075>077-085>089-095>099-201800-
   SOUTHEAST IOWA

CITY           SKY/WX    TMP DP  RH WIND       PRES   REMARKS
BURLINGTON     LGT RAIN  70  67  90 NE5       29.93F
FAIRFIELD *    CLOUDY    70  66  88 CALM      29.91F
FORT MADISON * LGT RAIN  70  70 100 CALM      29.95R
KEOKUK *       SUNNY     70  70 100 CALM      29.95R
OSKALOOSA *      N/A     70  68  94 SE6       29.89F
CENTERVILLE *  SUNNY     72  70  94 SE6       29.95R
OTTUMWA        LGT RAIN  70  67  90 SE5       29.90F
WASHINGTON *   LGT RAIN  70  70 100 N10       29.90F
$$

ABBREVIATIONS USED IN REMARKS
   TC - TEMPERATURES IN CELSIUS
  WCI - WIND CHILL INDEX
   HX - HEAT INDEX
  VSB - VISIBILITY
$$




USA.gov is the U.S. government's official web portal to all federal, state and local government web resources and services.